Theta_e
344 345 344 345 347 348 348 350 349 349 350 350 349 349 349 349 349 349 349 349 349 348 348 345 344 342 346 341 343 342 342 343 343 344 342 341 341 342 341 341 341 338 341 341 342 345 346 347 347 346 346 346 346 343 340 342 344 336 336 332 336 335
346 346 344 343 345 347 348 348 348 348 349 349 349 349 348 348 350 346 349 348 349 349 349 347 348 347 346 344 344 345 344 344 344 344 343 343 342 340 341 341 341 342 341 341 343 342 346 347 348 347 346 345 343 340 341 344 342 334 334 333 335 340
345 344 344 343 343 344 346 347 345 347 349 350 350 349 348 349 347 344 344 346 349 350 349 347 348 347 349 348 345 346 345 343 344 344 345 344 344 344 342 341 340 340 340 343 341 337 343 342 345 347 347 345 341 342 343 344 342 338 335 339 334 343
343 345 343 340 341 342 343 344 343 346 348 348 349 348 348 346 342 344 343 350 354 349 351 349 346 350 351 347 346 346 346 346 345 343 344 345 344 345 345 344 342 340 342 337 335 337 337 343 343 344 344 343 343 344 344 340 339 336 336 339 336 346
345 345 343 340 339 340 343 342 341 346 345 346 346 346 346 350 351 350 348 351 351 350 350 352 350 349 351 352 346 345 345 345 345 343 343 342 342 340 344 340 335 340 332 331 331 332 335 341 343 342 343 343 343 344 341 342 341 337 338 340 339 345
344 345 344 341 341 340 342 340 341 343 344 343 345 345 349 349 348 350 350 352 349 348 348 350 349 348 350 349 348 350 349 349 347 348 346 341 343 345 339 341 337 332 329 330 329 332 341 341 341 341 342 343 340 342 341 337 334 342 342 341 338 345
343 344 345 343 342 340 340 346 346 347 345 345 348 345 347 347 348 351 351 351 350 347 343 345 346 348 346 346 346 346 348 348 346 347 347 343 345 349 347 342 343 340 338 337 334 336 341 339 337 336 334 333 334 336 339 339 336 340 340 340 340 346
342 344 347 346 342 340 346 345 347 346 346 348 346 348 347 348 349 350 352 350 351 346 344 344 345 347 344 344 344 345 347 348 344 346 349 348 350 347 347 345 345 342 338 336 335 342 340 339 341 341 336 336 334 334 333 334 338 339 335 335 339 345
339 344 347 346 339 344 344 346 345 345 349 346 347 348 347 348 348 349 349 348 349 349 348 346 345 345 344 340 343 349 350 348 345 346 345 347 349 345 343 347 348 344 343 340 341 339 339 338 343 339 337 336 335 334 334 336 339 338 337 341 341 343
341 345 345 347 344 347 344 344 349 349 350 352 350 348 349 350 355 351 349 349 349 351 349 347 346 346 342 341 347 348 352 351 345 346 347 344 344 346 348 346 344 343 340 347 342 340 341 340 341 338 337 336 338 337 337 341 338 337 346 341 344 340
344 346 345 343 347 345 346 348 348 349 349 348 350 349 351 354 353 349 351 352 350 349 351 349 346 346 346 344 347 349 349 347 348 349 351 346 353 351 348 348 346 345 348 344 346 345 341 344 340 341 340 336 337 347 340 336 339 337 337 341 341 343
344 345 344 340 337 335 337 336 340 346 349 349 352 350 350 352 350 351 351 351 351 353 350 351 354 349 350 349 349 347 350 350 348 350 349 349 349 350 347 345 343 344 346 346 342 342 342 341 340 337 337 335 339 339 339 339 339 338 336 339 344 339
338 337 337 338 338 338 340 339 339 338 339 349 348 349 350 349 353 352 351 351 351 352 356 349 354 351 348 347 348 352 349 349 352 352 351 350 350 350 351 346 350 347 347 344 341 340 342 339 337 338 339 335 336 341 343 340 337 338 339 337 339 343
337 337 338 340 339 339 338 339 340 338 339 341 348 348 347 351 351 350 349 351 348 352 352 352 352 350 351 348 352 349 346 347 351 350 351 353 349 348 349 346 347 345 345 344 339 339 339 339 338 338 337 339 337 338 340 340 336 336 340 337 341 341
336 336 337 340 340 340 339 339 340 341 339 338 342 346 348 349 348 347 348 349 351 350 351 352 351 351 349 349 344 347 345 347 347 349 346 348 347 347 346 343 341 341 343 342 339 339 339 337 338 337 338 339 338 338 339 338 338 338 337 337 340 338
338 337 338 337 337 340 340 340 342 341 341 340 340 343 346 348 347 348 348 348 349 350 350 351 351 350 351 347 346 345 349 351 348 347 347 347 345 343 345 343 342 341 339 338 338 337 338 338 340 338 338 338 340 341 339 338 339 338 338 339 337 339
335 337 336 338 339 338 340 340 341 341 341 341 340 342 345 348 348 348 346 346 349 348 347 348 348 348 351 348 347 347 347 347 351 348 348 348 345 341 342 343 344 344 342 338 339 337 336 336 337 338 338 339 339 340 339 340 340 340 342 339 338 337
336 338 339 337 340 339 340 341 341 341 339 337 339 339 347 344 345 345 346 344 345 347 347 345 346 346 348 347 347 347 345 345 344 347 345 346 343 343 342 343 340 343 341 340 337 335 335 336 337 337 337 337 338 339 338 339 340 340 339 338 339 339
336 339 340 339 338 339 340 340 339 340 339 339 339 339 343 344 343 343 344 344 344 346 344 344 343 343 343 342 341 341 341 342 341 341 340 339 339 339 339 340 339 338 341 340 338 338 337 337 336 337 336 336 338 339 340 340 340 339 339 339 339 339
338 339 338 339 338 337 339 338 336 337 337 336 336 337 342 341 341 340 342 342 342 342 341 342 341 342 342 341 340 340 340 340 340 339 338 336 336 336 336 336 336 336 336 336 338 339 338 337 336 336 335 337 339 340 340 340 340 340 339 339 339 339
338 337 337 338 335 335 334 335 335 336 334 333 335 339 339 340 339 340 340 340 340 341 340 340 339 340 338 339 339 339 338 336 336 336 335 334 335 335 335 335 334 335 334 333 333 335 336 335 333 330 332 331 333 335 336 338 339 339 339 339 340 337
338 338 337 336 337 337 338 336 334 331 333 333 336 337 335 337 338 338 338 337 338 337 336 336 337 337 336 335 335 335 335 334 334 333 334 334 333 334 333 332 331 330 332 331 330 334 334 332 328 326 324 325 327 331 334 336 338 341 340 338 336 335
336 337 338 338 337 336 338 339 337 334 333 334 337 337 336 337 337 335 335 334 334 334 333 331 332 333 332 332 332 332 332 333 332 332 331 331 331 330 331 330 329 328 327 329 329 332 331 331 325 327 327 325 321 321 325 334 335 339 339 338 338 335
336 335 336 337 336 336 337 337 338 335 338 337 334 337 337 335 333 331 330 331 330 330 329 329 328 329 329 328 329 328 329 330 329 330 329 328 328 327 328 328 327 327 326 322 323 325 329 330 330 326 319 320 320 321 317 322 323 327 330 331 333 333
335 335 335 335 336 337 338 336 335 335 339 337 338 335 333 330 330 328 327 326 326 327 327 326 327 326 327 326 326 327 326 327 327 327 327 325 326 326 326 325 324 324 323 322 320 322 324 327 327 329 325 322 319 317 317 320 322 322 329 326 327 329
335 337 336 336 336 338 337 335 333 331 332 332 329 329 327 327 326 325 324 326 325 325 325 325 324 324 324 325 324 325 325 324 325 326 326 327 325 323 322 322 322 322 322 323 321 319 319 323 324 326 325 324 324 319 318 320 319 315 324 325 326 327
334 336 336 336 337 338 336 336 336 333 333 330 326 327 328 328 327 326 327 325 323 324 323 323 323 322 322 323 324 324 323 323 322 322 325 322 321 321 321 321 323 322 321 321 321 317 317 318 320 321 321 322 322 321 322 318 315 317 314 320 323 324
332 331 333 335 335 336 336 335 334 332 331 328 327 325 326 326 327 325 324 323 323 322 322 322 321 320 321 321 322 322 321 321 320 320 321 319 319 320 321 322 321 321 320 319 318 316 315 317 314 315 318 318 318 319 319 320 320 317 315 312 314 320
329 330 331 332 332 332 333 334 334 332 329 328 328 327 326 326 324 323 321 322 321 319 320 321 320 320 320 320 320 320 319 318 318 319 319 319 319 319 320 319 318 318 317 317 316 316 316 314 314 314 314 315 316 316 316 317 318 317 313 311 311 312
327 328 329 330 331 330 330 331 329 330 327 326 326 325 325 324 323 323 321 320 321 321 319 320 320 319 319 318 318 318 317 317 317 318 318 317 317 318 318 317 317 317 315 315 314 315 315 313 314 314 314 313 312 313 313 313 314 313 313 313 309 309
326 327 327 328 328 327 328 327 326 326 326 325 325 324 323 322 322 321 319 318 318 319 319 319 320 318 318 317 317 317 317 316 317 318 317 315 316 316 316 315 315 315 314 314 313 314 314 314 313 313 312 313 311 311 310 310 310 311 310 309 308 308
325 325 325 326 327 326 325 325 325 324 323 325 324 322 322 321 321 319 319 317 318 319 318 319 318 316 316 316 316 315 316 315 315 315 315 316 316 316 316 314 315 314 313 314 314 314 313 312 312 312 312 312 312 312 312 312 312 311 309 308 308 306
322 324 324 325 324 325 325 323 322 322 322 322 322 322 322 321 320 319 318 317 316 315 316 315 314 314 314 314 314 314 313 313 313 314 315 315 315 315 316 315 313 314 314 313 313 313 311 312 311 310 311 312 313 314 312 313 312 310 310 309 308 305
321 323 323 323 322 322 322 323 323 321 321 320 320 321 320 318 318 317 317 315 315 315 314 313 313 313 313 312 312 312 313 313 313 313 313 314 315 314 315 312 312 313 313 314 313 313 312 313 312 312 311 310 310 312 312 311 309 309 307 307 305 304
319 321 321 320 320 319 319 320 320 319 319 319 318 317 317 318 317 316 315 315 316 315 313 312 311 313 313 313 312 312 311 312 312 312 312 312 313 313 313 312 311 312 313 314 313 312 311 311 310 311 310 310 310 310 308 308 308 308 307 307 306 305
319 319 319 319 318 318 318 318 318 317 318 318 317 317 316 316 316 316 316 315 314 313 312 311 312 312 312 312 312 310 309 310 311 311 311 311 310 310 311 311 310 310 309 312 311 310 309 310 308 310 309 310 309 308 307 307 307 307 307 307 306 305
318 318 318 317 317 317 317 316 316 316 316 316 315 314 314 315 315 316 317 314 313 312 313 313 312 313 312 312 311 311 310 309 310 310 310 310 310 309 310 310 309 308 308 310 310 310 309 308 308 309 308 308 306 306 305 307 307 306 306 306 305 304
Wind_Speed
10 9 8 8 7 9 10 13 12 13 13 12 12 11 11 11 10 10 9 9 8 6 5 5 6 6 9 7 8 7 5 5 4 4 4 4 4 4 4 3 3 4 6 6 5 5 6 8 9 9 9 9 8 5 6 6 8 5 2 5 7 6
7 10 9 7 6 7 9 10 9 9 8 10 10 10 9 7 8 5 9 7 5 5 5 5 5 7 5 7 7 8 6 5 5 4 5 5 5 5 5 5 6 6 8 7 6 4 5 8 10 10 9 8 5 4 6 7 6 3 6 5 5 8
10 9 9 7 6 7 9 7 9 8 7 9 9 9 7 8 8 6 6 7 6 3 3 4 4 5 6 7 7 8 7 7 7 7 6 6 5 7 7 7 8 8 8 9 4 4 5 5 5 11 9 5 4 5 7 8 3 4 5 4 4 11
11 9 8 7 6 6 6 7 7 7 6 6 6 7 9 7 5 7 5 4 3 4 2 3 6 9 9 5 5 8 8 7 7 7 7 5 6 7 8 8 8 8 5 5 4 6 6 4 5 4 5 5 5 6 7 4 2 5 5 2 6 12
9 8 7 7 7 6 5 4 5 6 6 6 6 5 3 3 2 4 6 3 2 2 3 1 2 3 2 1 3 4 4 4 3 4 7 4 4 5 5 5 5 5 5 5 7 6 7 4 5 5 5 6 7 7 5 2 2 4 1 6 5 9
7 6 6 6 7 7 7 6 4 5 6 6 6 4 2 2 3 4 3 2 3 4 3 3 2 2 2 1 1 2 0 1 3 2 4 5 4 3 5 5 6 5 5 6 7 8 2 2 1 3 5 7 7 2 1 3 4 3 3 5 5 11
4 5 6 5 5 5 6 3 4 3 3 3 3 3 3 4 4 3 2 3 5 5 2 2 1 1 2 2 2 3 2 2 2 2 3 5 3 1 1 3 2 4 5 5 4 3 3 2 3 3 5 6 4 4 2 2 3 2 1 2 6 11
4 3 2 3 4 4 3 3 3 4 4 3 3 2 4 4 4 3 2 4 5 5 1 2 1 1 5 6 5 5 4 2 3 2 4 4 1 1 2 3 2 3 3 3 4 2 1 2 2 2 3 4 4 4 5 4 3 3 4 6 4 9
5 3 2 3 4 2 4 3 3 4 2 4 3 3 3 3 3 3 5 3 3 4 4 2 2 1 3 4 4 2 2 2 1 3 2 4 2 2 2 2 2 2 3 3 3 5 4 3 0 4 3 3 4 4 4 3 1 2 2 1 2 6
4 2 3 3 3 3 4 3 2 2 2 0 4 4 4 2 1 3 4 3 3 2 2 3 3 4 4 6 6 4 1 3 6 4 4 0 5 3 2 1 3 2 3 0 1 4 5 4 1 5 4 3 3 4 4 3 3 3 0 1 1 4
3 4 1 4 3 5 5 1 2 1 2 4 2 4 3 1 2 3 2 2 3 3 2 4 5 4 6 7 1 1 2 2 2 3 2 4 2 1 2 2 2 2 0 2 2 3 3 2 3 2 3 4 2 2 2 4 4 3 3 2 2 2
4 7 10 13 13 12 12 11 11 7 3 2 2 2 1 0 2 1 1 3 2 1 3 1 0 1 1 2 1 3 2 0 0 2 2 2 1 1 2 2 3 3 3 2 4 3 3 3 3 4 4 5 3 3 3 1 3 3 4 3 4 4
9 8 8 9 4 1 1 2 4 6 9 2 3 2 1 2 1 1 2 2 2 1 0 3 0 1 2 3 2 1 1 1 1 1 1 1 1 1 0 3 1 2 2 3 4 3 3 3 3 4 3 5 3 2 2 1 3 5 6 3 4 2
5 8 5 4 3 2 3 1 2 0 5 9 4 2 2 2 1 1 2 2 1 1 1 1 0 1 1 2 1 2 3 2 1 1 0 0 1 1 1 2 1 1 1 2 3 4 3 3 4 4 3 3 3 5 2 3 3 4 4 6 3 6
6 4 3 2 1 3 1 1 3 2 1 3 7 4 2 2 3 1 2 0 2 1 2 1 2 2 1 1 2 1 3 2 3 3 4 3 3 2 2 2 5 4 2 3 3 3 3 4 3 4 3 3 5 4 3 4 3 3 5 4 4 5
6 5 4 2 2 2 1 2 2 2 2 2 6 6 3 1 3 2 2 2 2 2 2 2 2 2 2 1 1 2 0 2 3 2 3 3 3 3 3 3 2 3 4 3 4 5 4 4 3 4 4 5 4 3 4 4 4 4 4 4 4 3
5 5 3 2 2 2 1 2 1 2 2 1 6 7 1 2 1 2 3 3 2 3 3 2 3 3 2 3 3 3 2 3 1 2 1 1 2 3 3 3 2 2 3 3 3 5 4 4 4 3 4 4 4 3 3 4 3 4 4 4 4 4
5 4 3 2 3 3 1 2 3 2 4 4 3 8 3 2 2 3 3 3 4 3 2 4 3 3 3 2 2 2 3 4 3 3 4 2 4 3 3 3 4 3 3 3 3 4 5 5 5 5 4 4 4 4 4 4 4 4 4 5 4 3
4 4 4 3 3 3 2 3 2 3 2 3 5 7 6 1 4 4 3 4 4 4 4 5 6 6 6 6 6 6 6 7 7 6 5 6 6 5 6 5 4 4 3 3 3 3 4 5 5 5 6 7 6 6 5 5 4 4 4 4 4 5
4 3 4 3 3 2 2 2 2 1 3 5 4 8 1 6 5 5 6 6 6 6 7 7 7 7 7 6 6 6 7 8 7 6 7 8 7 6 8 7 7 7 7 6 4 3 3 5 6 6 7 6 6 6 6 6 5 4 4 3 3 4
5 4 3 2 3 3 3 0 2 4 3 3 7 4 5 5 5 6 8 7 7 7 7 7 7 7 7 7 6 6 6 7 7 7 6 6 6 6 6 6 6 5 7 7 6 6 6 7 7 5 5 6 6 6 8 7 6 5 3 3 3 5
4 4 4 3 2 2 2 2 3 3 2 7 4 3 5 4 5 6 8 8 7 8 8 8 7 7 7 8 7 6 6 6 6 5 5 5 6 5 6 6 6 6 6 6 5 6 7 8 6 8 10 9 7 4 5 4 1 3 3 4 5 6
6 5 4 4 2 2 3 4 5 3 7 2 5 5 5 5 5 7 7 8 8 8 8 8 9 8 7 7 7 7 6 6 6 5 5 5 4 6 5 6 7 6 7 5 5 5 7 6 6 7 7 5 5 9 7 1 5 1 3 4 5 6
6 5 4 4 4 2 4 5 4 4 2 3 4 5 6 6 7 7 8 7 8 8 8 7 8 7 7 7 7 7 6 5 6 6 6 5 5 6 6 6 6 6 6 6 6 6 6 6 5 8 7 5 7 4 6 3 11 8 8 7 4 4
7 6 4 3 2 2 4 4 3 4 4 5 4 4 5 6 6 7 7 7 7 7 7 6 6 7 6 6 6 6 6 6 5 5 5 5 5 6 6 6 7 6 7 6 7 5 5 7 8 7 5 6 4 3 5 8 10 9 4 8 9 8
7 6 5 5 1 2 3 4 3 5 4 4 4 4 5 5 6 6 6 5 7 7 7 6 6 6 7 6 6 5 5 5 5 5 4 3 6 6 7 7 7 6 7 8 7 6 6 6 8 7 8 6 5 5 7 10 8 7 10 6 7 9
7 5 4 3 4 3 3 4 2 3 4 5 6 5 5 5 6 5 5 6 6 5 6 6 6 6 6 6 4 5 5 5 6 5 5 7 6 6 5 5 6 7 7 7 7 7 8 8 8 6 9 8 8 7 7 8 7 9 9 9 8 7
7 8 6 4 5 5 4 3 3 6 6 6 5 5 5 6 6 6 6 5 5 5 6 6 6 7 6 4 3 5 5 6 6 6 5 6 6 5 5 5 8 7 6 6 7 7 6 7 8 7 9 9 8 7 7 6 6 7 8 9 12 10
9 8 7 7 6 5 4 3 3 4 5 5 5 4 4 5 7 5 6 5 5 6 5 6 6 5 4 6 6 6 6 6 6 6 6 6 6 5 5 8 7 7 8 8 8 7 6 7 7 7 9 8 8 8 8 7 8 10 9 10 9 10
10 7 6 6 5 5 5 4 5 4 6 4 5 5 4 6 6 5 5 5 4 3 4 4 4 5 6 8 7 6 6 7 6 6 6 7 6 6 7 8 8 8 8 7 6 5 7 7 6 7 7 7 8 8 8 7 8 10 8 6 8 11
9 7 6 6 5 5 5 5 4 5 5 6 5 4 4 5 6 5 5 5 4 3 4 4 4 5 6 6 6 6 6 7 7 6 6 6 6 6 6 6 5 6 6 5 4 5 5 4 4 5 6 6 7 7 7 8 9 9 9 8 10 11
8 7 6 5 4 5 5 5 5 5 5 4 4 4 3 5 6 5 5 5 3 3 3 4 4 5 5 6 6 6 7 6 6 6 5 4 5 5 4 4 4 4 3 3 3 3 3 3 4 4 4 4 3 4 5 5 6 6 7 7 8 10
8 6 6 5 5 5 5 6 5 5 5 5 4 4 4 5 5 4 4 5 4 4 4 5 6 5 5 6 5 5 6 6 5 5 5 5 5 5 4 4 5 4 3 3 4 3 3 3 3 3 4 3 2 2 3 3 5 5 5 5 6 8
8 6 6 6 6 5 5 5 5 5 5 4 4 5 5 5 5 5 5 5 4 4 5 5 5 5 5 5 5 6 6 6 6 5 6 5 5 6 5 6 6 5 5 4 4 4 4 4 4 5 5 5 6 4 4 6 6 6 7 7 7 7
8 7 7 7 6 5 5 6 6 5 5 4 5 6 5 5 5 6 5 4 3 5 6 5 5 4 5 5 5 5 6 6 6 5 6 5 5 5 5 5 5 5 4 4 3 4 5 5 6 6 6 5 6 5 7 6 5 6 6 6 7 7
9 8 7 7 6 6 6 6 6 6 6 5 5 5 5 5 6 5 3 3 6 6 5 5 5 5 5 5 5 6 6 7 6 6 6 6 6 5 5 5 5 5 5 4 4 6 5 5 6 6 6 6 6 6 7 6 6 6 6 7 7 7
9 8 7 7 6 6 6 6 6 6 7 7 7 7 6 7 6 4 2 5 6 5 5 4 4 4 5 4 5 5 6 6 6 6 6 6 6 6 5 5 4 5 5 5 4 4 4 4 5 5 5 6 7 7 7 6 5 6 6 6 7 7
Wind_Direction
147 145 139 135 139 128 134 137 138 141 144 150 153 150 145 148 154 164 157 158 161 159 154 143 163 143 143 128 123 125 131 136 133 142 155 160 164 186 191 218 246 255 275 272 270 260 245 230 223 224 235 260 280 289 277 272 272 300 257 125 117 125
138 137 139 143 142 135 144 148 147 152 155 157 156 153 156 165 172 171 175 165 182 196 167 149 185 154 145 134 135 147 156 154 163 163 181 184 192 204 211 219 237 248 253 257 258 254 223 221 225 227 232 237 258 258 266 272 288 321 313 77 117 143
142 143 141 142 146 149 164 152 154 167 159 163 166 167 179 184 180 171 183 175 191 184 111 144 165 168 139 149 142 164 173 184 186 188 191 194 199 212 220 228 231 242 253 266 265 245 232 186 201 226 232 237 238 242 255 251 256 299 291 106 128 152
151 152 151 142 147 161 179 164 171 163 154 174 175 185 190 212 178 168 150 96 74 86 82 87 106 130 137 129 149 166 189 199 206 208 210 210 219 230 226 229 242 249 260 265 243 241 243 188 188 190 203 224 228 234 245 248 279 256 255 175 128 158
150 160 138 144 157 169 168 172 171 159 168 173 185 207 192 226 83 64 89 92 108 105 114 96 55 27 32 40 140 179 188 206 214 217 209 232 207 215 208 221 216 219 234 235 244 249 244 184 200 182 201 218 224 225 242 271 262 259 337 70 121 159
161 148 152 161 164 161 161 183 182 156 169 181 190 169 174 115 78 81 107 126 96 73 37 25 65 83 11 47 29 348 232 238 224 244 175 226 226 209 186 225 200 197 218 233 232 240 260 356 212 213 202 216 230 213 312 271 275 316 52 109 153 171
157 152 164 181 142 145 188 150 126 131 199 188 125 137 162 109 111 111 107 108 92 67 21 128 36 345 63 354 272 244 197 202 277 240 217 232 226 238 288 282 280 207 219 241 267 276 254 190 222 274 302 314 328 326 278 279 269 271 277 159 159 165
136 149 182 106 120 190 103 105 142 172 202 137 144 176 86 99 108 133 129 92 93 110 176 316 60 226 155 187 206 208 199 189 246 262 273 271 136 332 272 251 281 285 238 247 282 289 178 291 320 271 274 271 280 253 274 272 262 323 324 300 148 189
144 165 88 106 198 137 119 132 177 201 139 139 162 120 114 114 156 131 104 96 105 132 146 180 158 40 342 323 280 262 183 144 206 265 324 326 333 275 270 272 265 283 318 331 6 331 324 278 90 347 259 257 260 265 272 284 332 304 279 26 319 191
155 104 94 235 247 108 132 144 186 82 81 127 44 68 82 78 32 59 104 142 131 135 139 115 171 166 137 260 247 246 174 145 181 185 197 203 265 224 233 229 252 244 284 8 13 291 288 323 52 223 312 292 347 305 297 341 329 308 36 303 77 359
96 78 355 263 34 39 38 28 58 55 29 56 56 54 46 337 55 97 123 103 131 155 165 168 192 160 187 187 218 321 273 122 308 214 172 184 235 308 285 289 307 306 191 302 239 256 271 14 296 259 228 261 214 240 13 276 242 264 268 217 121 175
71 41 15 20 26 15 11 349 336 352 6 38 45 51 112 328 72 137 99 140 159 164 185 149 125 283 148 67 170 212 202 134 108 36 47 36 4 334 316 313 329 339 324 281 282 289 296 266 285 304 292 282 233 199 187 307 307 264 264 243 212 219
30 60 58 73 37 336 107 98 333 335 316 346 22 352 1 32 149 143 110 126 149 124 66 139 353 321 94 194 206 174 225 120 182 112 72 37 272 257 252 288 200 247 315 317 284 276 261 267 267 261 275 281 280 167 211 238 230 252 254 265 254 176
56 61 63 106 170 102 17 334 132 77 330 329 326 349 299 194 98 62 199 121 106 98 136 37 69 44 28 354 267 316 62 352 71 94 16 201 313 268 211 254 282 300 303 315 312 297 323 322 301 299 293 304 314 299 261 216 246 260 212 215 192 168
88 78 68 69 48 61 97 263 6 355 97 270 281 282 281 72 78 347 27 13 101 62 46 64 87 107 8 352 2 252 63 64 351 12 46 345 336 322 7 349 10 344 350 307 309 324 307 288 304 309 307 331 310 310 305 285 279 290 288 274 227 218
128 128 127 119 59 30 10 350 74 310 339 354 310 295 240 232 112 218 139 92 61 72 67 36 18 33 15 296 36 19 5 43 22 11 48 13 335 356 332 28 9 346 338 329 327 313 310 301 293 298 310 287 275 276 284 289 292 289 288 304 295 275
98 99 108 60 102 76 19 336 26 327 294 175 284 286 293 315 49 104 101 79 74 52 45 37 38 49 307 349 34 357 11 48 277 58 41 358 11 6 356 347 334 326 317 313 308 303 310 311 301 281 269 277 286 282 274 276 273 278 289 285 280 277
99 106 95 93 45 87 28 357 25 0 20 338 298 273 283 119 181 73 61 78 67 54 42 50 25 32 5 3 46 29 22 3 11 31 35 358 17 354 360 4 340 331 319 325 315 311 320 323 314 303 300 292 278 270 268 262 257 256 256 265 261 267
95 116 122 123 57 5 29 55 5 10 321 306 344 302 296 57 64 58 67 70 57 41 46 30 35 28 19 9 25 27 21 18 20 29 27 26 13 9 2 353 336 333 329 299 306 316 305 301 301 307 302 295 288 277 263 249 252 260 267 267 273 273
94 85 89 89 85 82 42 34 90 28 27 355 315 258 103 47 36 44 51 47 46 39 39 31 38 29 22 23 31 31 31 25 25 31 34 30 24 22 7 9 5 349 345 342 326 325 333 328 311 302 286 280 274 268 256 245 232 230 243 257 269 268
109 104 119 119 81 67 80 175 41 60 44 281 237 190 66 53 44 42 42 41 40 42 39 34 36 32 28 20 21 34 30 35 26 24 29 30 26 18 7 8 1 352 357 353 345 351 3 347 317 312 324 310 304 287 270 252 231 226 236 273 274 270
107 113 106 98 88 103 101 85 78 48 46 223 232 76 72 63 56 49 46 41 39 40 36 33 30 37 34 23 18 23 31 36 35 22 18 25 26 16 11 7 8 354 0 346 342 354 6 354 353 348 332 325 305 302 312 314 314 61 356 287 277 276
119 124 113 116 137 99 75 73 90 87 208 249 45 64 74 66 65 61 48 46 36 39 41 34 29 32 32 24 21 17 15 30 27 19 8 17 14 21 6 4 15 356 346 346 340 355 4 1 331 337 309 302 336 329 323 6 20 7 284 271 262 264
109 102 109 97 93 97 87 87 65 180 227 121 120 101 85 69 60 58 56 50 44 40 43 42 36 36 36 30 23 20 9 19 27 17 7 4 7 14 4 4 10 4 356 351 352 351 350 339 348 355 348 339 299 292 300 13 346 327 301 281 290 296
105 95 89 103 131 102 100 98 184 224 140 118 99 83 78 68 65 61 55 45 49 45 39 39 40 37 32 32 24 19 14 5 25 24 11 352 12 14 7 6 11 6 9 2 350 343 342 354 4 348 1 340 335 325 354 329 335 303 336 345 326 314
115 119 115 109 116 118 109 128 164 225 177 119 97 83 79 86 79 70 68 61 52 44 50 36 34 38 32 27 26 18 17 9 13 14 348 358 32 22 8 13 6 10 3 15 353 335 351 353 356 358 22 4 350 330 329 327 321 322 327 310 330 333
108 103 98 97 125 125 153 189 166 122 98 87 92 78 72 65 83 89 85 72 63 46 41 42 37 30 31 31 22 23 27 15 12 8 359 40 27 27 13 10 15 18 15 8 5 2 2 355 347 3 7 354 351 345 345 347 340 327 323 330 337 337
82 74 51 50 79 62 51 44 66 83 84 89 96 95 87 81 78 71 60 55 67 53 39 39 35 30 31 28 20 40 31 30 12 7 16 38 25 23 359 32 33 21 20 16 19 18 357 1 359 349 352 349 350 344 345 329 330 328 323 326 325 331
85 78 69 53 44 55 38 23 30 86 93 95 102 103 97 94 87 74 69 55 54 62 60 46 40 32 40 31 21 25 34 38 21 13 18 34 26 14 2 39 28 31 23 24 18 9 360 10 1 354 348 356 342 347 345 344 345 357 347 336 322 330
91 87 81 77 76 69 42 33 44 64 97 99 99 93 92 98 98 93 84 74 57 61 70 61 50 34 23 42 29 22 23 42 31 22 24 33 22 5 33 36 30 37 32 28 20 3 21 13 359 0 1 349 351 353 349 349 2 349 342 335 332 327
91 95 93 89 92 82 58 49 54 54 80 105 106 104 106 112 110 106 101 90 79 55 53 64 64 42 33 34 36 31 23 37 39 27 27 35 22 19 36 41 35 41 44 38 28 22 24 17 3 4 5 2 0 359 347 346 351 351 346 340 334 324
105 106 112 118 108 106 109 97 74 56 61 59 98 111 113 113 119 119 109 94 80 68 82 78 66 60 33 39 37 31 33 34 40 30 26 29 37 16 35 55 37 52 33 34 30 19 40 13 8 7 12 360 357 333 339 351 355 347 341 337 328 321
114 109 104 101 83 76 81 88 93 91 69 44 62 93 99 97 89 100 104 100 92 75 66 59 47 42 43 49 40 35 40 35 35 33 27 24 36 21 5 55 30 41 35 33 24 12 28 10 12 360 357 323 294 316 354 356 353 334 332 329 329 324
117 113 104 90 81 81 86 87 82 77 72 65 69 62 73 81 75 72 72 68 74 77 72 64 57 45 35 48 50 48 41 42 37 36 32 23 34 27 11 38 33 16 24 5 31 6 7 11 19 355 19 347 338 355 25 20 360 351 349 341 338 330
124 113 100 93 93 91 74 65 75 79 81 78 75 62 60 73 82 81 75 104 115 76 66 65 61 45 39 39 53 54 51 38 37 33 33 28 25 31 16 38 36 10 13 350 28 24 13 17 13 5 18 347 340 14 33 11 354 7 341 344 330 335
123 114 112 119 114 105 87 84 88 90 96 97 93 83 80 73 73 73 87 87 76 74 78 71 68 65 48 44 37 50 49 45 36 32 29 30 29 27 22 29 36 13 7 353 22 31 17 14 15 9 5 353 358 27 27 2 0 4 348 339 346 346
127 123 121 111 103 103 109 100 97 100 96 97 96 97 92 87 93 109 103 67 72 80 73 74 79 68 65 51 49 48 50 45 38 32 26 27 30 28 27 16 30 20 5 360 20 26 20 22 19 14 356 19 19 18 17 355 2 2 347 350 357 350